EW2887 Weather Reports


time (UTC)temp
C
wind
direction
speed
KPH
gust
KPH
rain 1hr
cm
rain 24hr
cm
rain mn
cm
humidity
%
barometer
mb
20260906213009 32 360 9.7 22.5 0.00 0.00 0.00 34 1006.0
20260906211504 32 360 17.7 29.0 0.00 0.00 0.00 34 1006.2
20260906210005 32 360 19.3 30.6 0.00 0.00 0.00 34 1006.3
20260906204502 32 190 12.9 27.4 0.00 0.00 0.00 35 1006.4
20260906203005 33 172 17.7 25.7 0.00 0.00 0.00 34 1006.6
20260906201501 33 360 12.9 35.4 0.00 0.00 0.00 34 1006.4
20260906200100 33 136 20.9 37.0 0.00 0.00 0.00 35 1006.5
20260906194605 33 150 25.7 35.4 0.00 0.00 0.00 34 1006.8
20260906193055 32 136 11.3 32.2 0.00 0.00 0.00 35 1007.0
20260906191607 31 360 25.7 35.4 0.00 0.00 0.00 37 1007.2
20260906190053 32 120 20.9 35.4 0.00 0.00 0.00 37 1007.5
20260906184557 32 184 14.5 27.4 0.00 0.00 0.00 37 1007.6
20260906183050 32 360 20.9 30.6 0.00 0.00 0.00 38 1007.9
20260906181601 32 130 16.1 25.7 0.00 0.00 0.00 39 1008.2
20260906180047 31 148 17.7 35.4 0.00 0.00 0.00 41 1008.3
20260906174546 31 360 20.9 37.0 0.00 0.00 0.00 41 1008.4
20260906173045 31 171 17.7 30.6 0.00 0.00 0.00 42 1008.5
20260906171545 31 163 14.5 35.4 0.00 0.00 0.00 43 1008.6
20260906170043 31 360 20.9 32.2 0.00 0.00 0.00 43 1008.5
20260906164539 30 205 14.5 30.6 0.00 0.00 0.00 47 1008.6
20260906163049 30 198 19.3 30.6 0.00 0.00 0.00 49 1008.8
20260906161535 29 196 27.4 38.6 0.00 0.00 0.00 49 1008.8
20260906160033 29 195 25.7 37.0 0.00 0.00 0.00 50 1008.8
20260906154531 29 213 24.1 35.4 0.00 0.00 0.00 51 1008.6
20260906153033 28 210 22.5 35.4 0.00 0.00 0.00 52 1008.7
20260906151528 28 182 20.9 33.8 0.00 0.00 0.00 54 1008.7
20260906150031 27 210 22.5 29.0 0.00 0.00 0.00 55 1008.7
20260906144526 26 192 16.1 27.4 0.00 0.00 0.00 58 1008.7
20260906143024 25 203 17.7 29.0 0.00 0.00 0.00 61 1008.8
20260906141523 24 186 14.5 24.1 0.00 0.00 0.00 62 1008.8
20260906140023 24 189 14.5 25.7 0.00 0.00 0.00 62 1008.6
20260906134521 23 175 12.9 22.5 0.00 0.00 0.00 62 1008.5
20260906133018 23 186 12.9 24.1 0.00 0.00 0.00 62 1008.2
20260906131518 23 203 14.5 22.5 0.00 0.00 0.00 63 1007.9
20260906130016 23 162 12.9 19.3 0.00 0.00 0.00 63 1008.1
20260906124514 23 161 8.0 17.7 0.00 0.00 0.00 63 1008.3
20260906123018 23 157 6.4 12.9 0.00 0.00 0.00 63 1008.1
20260906121509 23 144 6.4 11.3 0.00 0.00 0.00 62 1007.9
20260906120009 23 148 4.8 14.5 0.00 0.00 0.00 61 1007.8
20260906114522 23 136 6.4 14.5 0.00 0.00 0.00 61 1007.8
20260906113007 23 360 6.4 14.5 0.00 0.00 0.00 60 1007.7
20260906111517 23 134 9.7 17.7 0.00 0.00 0.00 60 1007.8
20260906110007 23 168 3.2 6.4 0.00 0.00 0.00 60 1007.8
20260906104508 23 169 1.6 4.8 0.00 0.00 0.00 60 1007.7
20260906103002 23 169 3.2 9.7 0.00 0.00 0.00 59 1007.5
20260906101502 23 158 8.0 12.9 0.00 0.00 0.00 59 1007.4
20260906100001 23 172 9.7 14.5 0.00 0.00 0.00 58 1007.3
20260906094601 23 159 8.0 14.5 0.00 0.00 0.00 59 1007.2
20260906093059 23 152 6.4 14.5 0.00 0.00 0.00 61 1007.2
20260906091602 23 159 6.4 17.7 0.00 0.00 0.00 62 1007.2
20260906090056 23 163 9.7 16.1 0.00 0.00 0.00 61 1007.1
20260906084553 23 166 8.0 12.9 0.00 0.00 0.00 60 1007.3
20260906083051 23 171 8.0 16.1 0.00 0.00 0.00 59 1007.3
20260906081554 23 198 9.7 16.1 0.00 0.00 0.00 59 1007.3
20260906080052 24 207 9.7 12.9 0.00 0.00 0.00 57 1007.4
20260906074545 25 205 9.7 12.9 0.00 0.00 0.00 54 1007.5
20260906073043 25 169 8.0 17.7 0.00 0.00 0.00 53 1007.3
20260906071537 26 194 9.7 19.3 0.00 0.00 0.00 52 1007.2
20260906070036 26 170 12.9 27.4 0.00 0.00 0.00 52 1007.3
20260906064537 25 163 11.3 19.3 0.00 0.00 0.00 53 1007.5
20260906063031 26 153 9.7 19.3 0.00 0.00 0.00 52 1007.5
20260906061527 26 169 9.7 24.1 0.00 0.00 0.00 50 1007.4
20260906060027 26 147 12.9 22.5 0.00 0.00 0.00 50 1007.4
20260906054524 27 165 11.3 20.9 0.00 0.00 0.00 48 1007.4
20260906053023 27 134 11.3 27.4 0.00 0.00 0.00 47 1007.4
20260906051518 27 360 14.5 37.0 0.00 0.00 0.00 46 1007.3
20260906050016 28 140 17.7 30.6 0.00 0.00 0.00 46 1007.3
20260906044515 28 146 11.3 22.5 0.00 0.00 0.00 45 1007.3
20260906043014 28 360 11.3 29.0 0.00 0.00 0.00 44 1007.3
20260906041520 28 165 16.1 24.1 0.00 0.00 0.00 44 1007.4
20260906040025 29 150 16.1 30.6 0.00 0.00 0.00 42 1007.4
20260906034513 29 360 12.9 27.4 0.00 0.00 0.00 42 1007.3
20260906033012 28 360 9.7 20.9 0.00 0.00 0.00 44 1007.2
20260906031516 28 175 11.3 20.9 0.00 0.00 0.00 45 1006.9
20260906030011 30 142 11.3 22.5 0.00 0.00 0.00 41 1006.5
20260906024510 30 176 11.3 20.9 0.00 0.00 0.00 41 1006.2
20260906023009 30 360 14.5 27.4 0.00 0.00 0.00 40 1005.9
20260906021509 30 159 14.5 25.7 0.00 0.00 0.00 41 1005.9
20260906020010 29 169 12.9 25.7 0.00 0.00 0.00 45 1005.6
20260906014511 30 133 9.7 22.5 0.00 0.00 0.00 42 1005.1
20260906013009 30 175 12.9 22.5 0.00 0.00 0.00 40 1004.8
20260906011506 31 183 11.3 24.1 0.00 0.00 0.00 40 1005.0
20260906010006 32 165 9.7 25.7 0.00 0.00 0.00 37 1005.1
20260906004505 32 165 8.0 20.9 0.00 0.00 0.00 36 1005.0
20260906003005 33 360 14.5 27.4 0.00 0.00 0.00 36 1004.9
20260906001505 33 139 9.7 19.3 0.00 0.00 0.00 33 1004.7
20260906000004 33 172 12.9 20.9 0.00 0.00 0.00 33 1004.5
20260905234503 33 171 14.5 22.5 0.00 0.00 0.00 33 1004.3
20260905233002 33 164 11.3 24.1 0.00 0.00 0.00 32 1004.1
20260905231504 33 181 16.1 27.4 0.00 0.00 0.00 32 1003.9
20260905230002 33 167 9.7 20.9 0.00 0.00 0.00 32 1003.9
20260905224501 34 153 11.3 22.5 0.00 0.00 0.00 32 1004.0
20260905223100 34 120 12.9 30.6 0.00 0.00 0.00 33 1003.9
20260905221621 34 195 11.3 22.5 0.00 0.00 0.00 31 1003.9
20260905220059 35 360 16.1 29.0 0.00 0.00 0.00 30 1004.0
20260905214605 34 360 12.9 25.7 0.00 0.00 0.00 30 1004.2